Starlink 1153

operational
NORAD ID: 45080 Int'l Des: 2020-006 Owner: SPXS Country: US Constellation: starlink
LEOCIRCULARSTARLINK_TYPE

About Starlink 1153

Description loading...

Live Position

Loading 3D Globe...

Upcoming Passes

Altitude History

Altitude vs Time

uPlot chart will show altitude changes over time

Two-Line Element Set

1 45080U 20006AN 25308.18765727 .00004212 00000-0 30147-3 0 9993
2 45080 53.0521 110.0176 0001514 88.9084 271.2078 15.06404650317828
Epoch: Nov 4, 2025 • Age: 15 hours

Current Status

Altitude 549.3 km
Velocity 7.59 km/s
Sub-Earth Point 36.87°N, 171.41°E
Launch Date Jan 29, 2020
Age 5.7 years
Type internet

Technical Details

Classification Payload
Mass 260.00 kg
Dry Mass 248.00 kg
Total Mass 260.00 kg
Length 0.20 m
Diameter 2.80 m
Span 9.00 m
Shape Box + pan
Manufacturer SPXS
Bus Type Starlink
Phase Status In Orbit
Owner/State SPXS/US

Large Constellations

Loading constellations...